Location: Oshawa
(43.9000°N, 78.8670°W)
Time: 09:46:17
(UTC-04:00)

Thor Agena Rocket - Visible Passes

Search period start: 28 May 2016 00:00
Search period end: 07 June 2016 00:00
Orbit: 760 x 808 km, 99.1° (Epoch: 28 May)

Date Brightness Start Highest point End Pass type
(mag) Time Alt. Az. Time Alt. Az. Time Alt. Az.
28 May 6.2 03:30:15 10° ESE 03:34:04 21° ENE 03:37:55 10° NNE visible
29 May 6.6 03:01:35 10° ENE 03:03:21 12° NE 03:05:06 10° NE visible
29 May 3.9 04:36:27 10° SSE 04:41:44 74° ENE 04:47:01 10° N visible
30 May 5.1 04:05:47 10° SE 04:10:41 40° ENE 04:15:35 10° N visible
31 May 6.0 03:35:45 10° ESE 03:39:46 23° ENE 03:43:48 10° NNE visible
01 Jun 6.5 03:06:46 10° E 03:09:01 13° NE 03:11:16 10° NNE visible
01 Jun 3.8 04:42:11 10° SSE 04:47:29 81° ENE 04:52:47 10° NNW visible
02 Jun 4.9 04:11:26 10° SE 04:16:25 44° ENE 04:21:24 10° N visible
03 Jun 5.9 03:41:17 10° ESE 03:45:29 25° ENE 03:49:40 10° N visible
04 Jun 6.5 03:12:03 10° E 03:14:42 14° ENE 03:17:20 10° NNE visible
04 Jun 3.7 04:47:56 10° SSE 04:53:14 89° ENE 04:58:33 10° NNW visible
05 Jun 4.7 04:17:05 10° SE 04:22:08 48° ENE 04:27:11 10° N visible
06 Jun 5.8 03:46:50 10° ESE 03:51:11 27° ENE 03:55:32 10° N visible
